User: anonymous   Login
Location: Newark
(45.8944°N, 12.5886°E)
Time: 19:10:10
(UTC+00:00)
Language:

PRISM - Orbit

View from above orbital plane
View from above orbital plane
View from above satellite
View from above satellite

Ground track
Ground track

The orbit data is extracted from the following two-line orbital elements,

1 33493U 09002B   20101.07603372  .00000184  00000-0  21622-4 0  9995
2 33493  98.1394  38.5557 0013959 284.0680  75.8989 14.96969968609486
Epoch (UTC): 10 April 2020 01:49:29
Eccentricity: 0.0013959
inclination: 98.1394°
perigee height: 566 km
apogee height: 586 km
right ascension of ascending node: 38.5557°
argument of perigee: 284.0680°
revolutions per day: 14.96969968
mean anomaly at epoch: 75.8989°
orbit number at epoch: 60948

The dashed part of the orbit path shows where the satellite is in the earth's shadow,  

DLR